Regional Weather Roundup
Issued by NWS New Orleans/Baton Rouge, LA

Home | Current Version | Previous Version | Graphics & Text | Print | Product List | Glossary On
Versions: 1 2 3 4 5 6 7 8 9 10 11 12 13 14 15 16 17 18 19 20 21 22 23 24 25 26 27 28 29 30 31 32 33 34 35 36 37 38 39 40 41 42 43 44 45 46 47 48 49 50
091
ASUS44 KLIX 210005
RWRLIX
NEW ORLEANS REGIONAL WEATHER ROUNDUP
NATIONAL WEATHER SERVICE NEW ORLEANS LA
600 PM CST SAT DEC 20 2014

NOTE: "FAIR" INDICATES FEW OR NO CLOUDS BELOW 12,000 FEET WITH NO
      SIGNIFICANT WEATHER AND/OR OBSTRUCTIONS TO VISIBILITY.
      SKY/WX - SKY CONDITION AND SIGNIFICANT WEATHER.
      TMP - AIR TEMPERATURE.     DP    - DEWPOINT TEMPERATURE.
      RH  - RELATIVE HUMIDITY.   PRES  - PRESSURE.
      HI  - HEAT INDEX.          WCI   - WIND CHILL INDEX.

*  THESE STATIONS ARE NOT NWS OR FAA STATIONS AND ARE NOT UNDER
   NWS QUALITY CONTROL.

LAZ038-040-048-061>063-065>067-069-210100-
SOUTHEAST LOUISIANA

CITY           SKY/WX    TMP DP  RH WIND       PRES   REMARKS
N.O. AUDUBON     N/A     53  50  90 MISG        N/A
6HR MIN TEMP:  52; 6HR MAX TEMP:  56;

N.O. INTL ARPT CLOUDY    52  47  83 NE15      30.13S
6HR MIN TEMP:  52; 6HR MAX TEMP:  53;

N.O. LAKEFRONT CLOUDY    54  48  80 N15       30.14R
6HR MIN TEMP:  54; 6HR MAX TEMP:  56;

N.O. DOWNTOWN* CLOUDY    52  45  76 N9        30.14R
6HR MIN TEMP:  52; 6HR MAX TEMP:  54;

SLIDELL        CLOUDY    52  46  80 N9        30.13S
6HR MIN TEMP:  52; 6HR MAX TEMP:  54;

BATON ROUGE    PTCLDY    48  45  89 NE8       30.15S
6HR MIN TEMP:  48; 6HR MAX TEMP:  51;

BOOTHVILLE     CLOUDY    55  51  86 NE9       30.11R
6HR MIN TEMP:  54; 6HR MAX TEMP:  56;

BELLE CHASSE   CLOUDY    53  49  86 N8        30.12R
6HR MIN TEMP:  53; 6HR MAX TEMP:  56;

BOGALUSA*        N/A     52  46  81 NE7       30.17S
6HR MIN TEMP:  51; 6HR MAX TEMP:  53;

GALLIANO*      CLOUDY    55  51  86 MISG      30.11R
6HR MIN TEMP:  55; 6HR MAX TEMP:  57;

NEW ROADS*       N/A     49  46  89 CALM      30.15S
6HR MIN TEMP:  49; 6HR MAX TEMP:  54;

GONZALES*      CLOUDY    50  50  99 N8        30.14R
6HR MIN TEMP:  50; 6HR MAX TEMP:  51;

HAMMOND*       NOT AVBL
HOUMA*         CLOUDY    52  48  87 N10       30.12R
PORT FOURCHON* CLOUDY    55  52  88 NE15G22   30.13R

$$

MSZ070-080>082-210100-
SOUTHERN MISSISSIPPI

CITY           SKY/WX    TMP DP  RH WIND       PRES   REMARKS
MCCOMB         CLOUDY    50  44  80 E5        30.15R
6HR MIN TEMP:  48; 6HR MAX TEMP:  51;

GULFPORT       CLOUDY    51  47  86 N10       30.13R
6HR MIN TEMP:  51; 6HR MAX TEMP:  53;

BILOXI         CLOUDY    52  49  90 N10       30.13R
6HR MIN TEMP:  51; 6HR MAX TEMP:  53;

PASCAGOULA     CLOUDY    51  48  89 N10G18    30.12S
6HR MIN TEMP:  51; 6HR MAX TEMP:  52;

STENNIS ARPT*  CLOUDY    52  45  76 N12       30.14R

$$

COASTAL OBSERVATIONS
LAKE AND NEARSHORE STATIONS

STATION/POSITION TIME  TEMP    WIND        PRES    WAVE
                       AIR SEA DIR/SP/G            HT/PER
                 (UTC) (F)     (DEG/KT/KT) (MB)    (FT/S)
PASCAGOULA       0000   51      20/ 10/ 14 1019.3
WAVELAND YACHT   0000   52      20/ 14/ 17 1019.3
GRAND ISLE       0000   55 60   50/ 11/ 18 1019.7
SOUTHWEST PASS   0000   56                 1018.7
NEW CANAL        0000   52 56   20/ 13/ 16 1020.7
SHELL BEACH      0000   53 57   10/ 15/ 18 1019.7

OFFSHORE STATIONS

STATION/POSITION TIME  TEMP    WIND        PRES    WAVE
                       AIR SEA DIR/SP/G            HT/PER
                 (UTC) (F)     (DEG/KT/KT) (MB)    (FT/S)
64 S DAUPHIN ISL 0000   64 74   40/ 19/ 23 1017.2    7/ 6

$$




USA.gov is the U.S. government's official web portal to all federal, state and local government web resources and services.